Location: ??? ????
(38.0580°N, 23.1536°E)
Time: 13:36:17
(UTC+00:00)

Cosmos 2369 - Pass Details

Date: 13 December 2025
Orbit: 839 x 854 km, 71.0° (Epoch: 17 January)

Event Time Altitude Azimuth Distance (km) Brightness Sun altitude
Rises 16:10:22 0° 189° (S) 3,402 7.3 -11.9°
Reaches altitude 10° 16:12:50 10° 186° (S) 2,472 6.5 -12.4°
Maximum altitude 16:18:24 59° 108° (ESE) 982 3.8 -13.4°
Enters shadow 16:23:40 12° 31° (NNE) 2,363 5.6 -14.4°
